Airport Information

KGRF - Gray AAF

KGRF 251158Z AUTO 00000KT 10SM FEW150 03/03 A3002 RMK AO2 SLP171 T00250025 10054 20014 56025 $


  • General Information

  • Coordinates: N 47°4'45"/ W 122°34'50"
  • Location: N/A
  • Surveyed Elevation: 302 MSL

Operations

Flow Name Active Runways Conditions

Green background denotes normal operations.


Common Frequencies

Callsign Frequency Position Name

More at the Document Center


Charts